{"data":{"norad_id":48375,"epoch":"2026-05-25T00:01:30.098784Z","epoch_age_seconds":71381,"freshness":"FRESH","line1":"1 48375U 21038Y   26145.00104281  .00007467  00000+0  25201-3 0  9991","line2":"2 48375  53.1595 352.8812 0001109  88.7619 271.3510 15.31715889278910","mean_motion":15.31715889,"eccentricity":0.0001109,"inclination_deg":53.1595,"raan_deg":352.8812,"arg_perigee_deg":88.7619,"mean_anomaly_deg":271.351,"bstar":0.00025201,"rev_number":27891,"period_min":94.012212730921,"perigee_km":469.93309614676,"apogee_km":471.452166559,"semimajor_km":6848.8296313529,"source":"CELESTRAK","updated_at":"2026-05-25T13:38:16.688322Z"}}